| time (UTC) | temp F | wind direction | speed MPH | gust MPH | rain 1hr in | rain 24hr in | rain mn in | humidity % | barometer mb |
| 20260508124823 | 67 | 335 | 0.0 | 0.0 | 0.00 | 0.00 | 0.00 | 84 | 1014.6 |
| 20260508123823 | 67 | 335 | 0.0 | 1.0 | 0.00 | 0.00 | 0.00 | 84 | 1014.5 |
| 20260508122823 | 67 | 89 | 0.0 | 2.0 | 0.00 | 0.00 | 0.00 | 84 | 1013.9 |
| 20260508121839 | 67 | 89 | 0.0 | 0.0 | 0.00 | 0.00 | 0.00 | 83 | 1014.2 |
| 20260508120823 | 67 | 89 | 0.0 | 2.0 | 0.00 | 0.00 | 0.00 | 83 | 1014.5 |
| 20260508115823 | 67 | 342 | 0.0 | 2.0 | 0.00 | 0.00 | 0.00 | 82 | 1014.7 |
| 20260508114823 | 68 | 157 | 0.0 | 4.0 | 0.00 | 0.00 | 0.00 | 82 | 1014.1 |
| 20260508113823 | 68 | 131 | 2.0 | 3.0 | 0.00 | 0.00 | 0.00 | 81 | 1014.2 |
| 20260508112823 | 68 | 59 | 0.0 | 3.0 | 0.00 | 0.00 | 0.00 | 82 | 1013.8 |
| 20260508111822 | 68 | 86 | 0.0 | 0.0 | 0.00 | 0.00 | 0.00 | 80 | 1014.8 |
| 20260508110822 | 68 | 86 | 0.0 | 0.0 | 0.00 | 0.00 | 0.00 | 79 | 1013.9 |
| 20260508105822 | 68 | 86 | 0.0 | 1.0 | 0.00 | 0.00 | 0.00 | 79 | 1013.9 |
| 20260508104822 | 68 | 86 | 0.0 | 1.0 | 0.00 | 0.00 | 0.00 | 79 | 1014.0 |
| 20260508103822 | 68 | 63 | 0.0 | 1.0 | 0.00 | 0.00 | 0.00 | 79 | 1014.5 |
| 20260508102822 | 68 | 84 | 0.0 | 1.0 | 0.00 | 0.00 | 0.00 | 79 | 1014.9 |
| 20260508101822 | 68 | 66 | 0.0 | 1.0 | 0.00 | 0.00 | 0.00 | 79 | 1014.8 |
| 20260508100822 | 68 | 37 | 0.0 | 1.0 | 0.00 | 0.00 | 0.00 | 79 | 1014.7 |
| 20260508095822 | 68 | 351 | 0.0 | 0.0 | 0.00 | 0.00 | 0.00 | 78 | 1014.7 |
| 20260508094837 | 68 | 351 | 0.0 | 2.0 | 0.00 | 0.00 | 0.00 | 78 | 1014.7 |
| 20260508093822 | 68 | 67 | 0.0 | 1.0 | 0.00 | 0.00 | 0.00 | 78 | 1014.2 |
| 20260508092822 | 68 | 333 | 0.0 | 1.0 | 0.00 | 0.00 | 0.00 | 78 | 1014.7 |
| 20260508091822 | 68 | 112 | 0.0 | 7.0 | 0.00 | 0.00 | 0.00 | 77 | 1014.2 |
| 20260508090821 | 68 | 74 | 2.0 | 4.0 | 0.00 | 0.00 | 0.00 | 77 | 1013.9 |
| 20260508085822 | 68 | 61 | 0.0 | 1.0 | 0.00 | 0.00 | 0.00 | 77 | 1014.1 |
| 20260508084821 | 68 | 61 | 0.0 | 1.0 | 0.00 | 0.00 | 0.00 | 77 | 1014.4 |
| 20260508083821 | 69 | 48 | 0.0 | 1.0 | 0.00 | 0.00 | 0.00 | 77 | 1014.3 |
| 20260508082837 | 69 | 62 | 0.0 | 0.0 | 0.00 | 0.00 | 0.00 | 77 | 1014.1 |
| 20260508081821 | 69 | 62 | 0.0 | 0.0 | 0.00 | 0.00 | 0.00 | 77 | 1014.5 |
| 20260508080836 | 69 | 62 | 0.0 | 3.0 | 0.00 | 0.00 | 0.00 | 76 | 1014.2 |
| 20260508075821 | 69 | 96 | 0.0 | 1.0 | 0.00 | 0.00 | 0.00 | 76 | 1014.3 |
| 20260508074821 | 69 | 96 | 0.0 | 0.0 | 0.00 | 0.00 | 0.00 | 76 | 1015.0 |
| 20260508073821 | 69 | 96 | 0.0 | 1.0 | 0.00 | 0.00 | 0.00 | 76 | 1015.2 |
| 20260508072821 | 68 | 96 | 0.0 | 1.0 | 0.00 | 0.00 | 0.00 | 76 | 1014.7 |
| 20260508071821 | 68 | 96 | 0.0 | 1.0 | 0.00 | 0.00 | 0.00 | 76 | 1015.1 |
| 20260508070821 | 68 | 96 | 1.0 | 1.0 | 0.00 | 0.00 | 0.00 | 76 | 1015.1 |
| 20260508065821 | 68 | 58 | 0.0 | 3.0 | 0.00 | 0.00 | 0.00 | 76 | 1015.0 |
| 20260508064821 | 68 | 68 | 0.0 | 2.0 | 0.00 | 0.00 | 0.00 | 76 | 1014.5 |
| 20260508063820 | 68 | 168 | 0.0 | 0.0 | 0.00 | 0.00 | 0.00 | 76 | 1014.8 |
| 20260508062820 | 69 | 47 | 0.0 | 0.0 | 0.00 | 0.00 | 0.00 | 75 | 1014.9 |
| 20260508061820 | 69 | 323 | 0.0 | 0.0 | 0.00 | 0.00 | 0.00 | 75 | 1015.4 |
| 20260508060821 | 69 | 319 | 0.0 | 1.0 | 0.00 | 0.00 | 0.00 | 75 | 1015.8 |
| 20260508055820 | 69 | 17 | 0.0 | 1.0 | 0.00 | 0.00 | 0.00 | 75 | 1015.5 |
| 20260508054820 | 69 | 62 | 0.0 | 1.0 | 0.00 | 0.00 | 0.00 | 75 | 1014.8 |
| 20260508053850 | 69 | 62 | 0.0 | 1.0 | 0.00 | 0.00 | 0.00 | 74 | 1014.7 |
| 20260508052820 | 69 | 62 | 0.0 | 1.0 | 0.00 | 0.00 | 0.00 | 74 | 1015.1 |
| 20260508051850 | 69 | 62 | 0.0 | 2.0 | 0.00 | 0.00 | 0.00 | 74 | 1014.6 |
| 20260508050820 | 69 | 61 | 0.0 | 3.0 | 0.00 | 0.00 | 0.00 | 74 | 1014.9 |
| 20260508045820 | 69 | 49 | 1.0 | 3.0 | 0.00 | 0.00 | 0.00 | 73 | 1015.1 |
| 20260508044820 | 69 | 69 | 0.0 | 3.0 | 0.00 | 0.00 | 0.00 | 73 | 1014.8 |
| 20260508043850 | 69 | 69 | 0.0 | 2.0 | 0.00 | 0.00 | 0.00 | 73 | 1014.9 |
| 20260508042845 | 69 | 88 | 0.0 | 2.0 | 0.00 | 0.00 | 0.00 | 73 | 1014.9 |
| 20260508041845 | 69 | 91 | 0.0 | 4.0 | 0.00 | 0.00 | 0.00 | 73 | 1015.0 |
| 20260508040845 | 69 | 78 | 0.0 | 0.0 | 0.00 | 0.00 | 0.00 | 73 | 1015.0 |
| 20260508035845 | 69 | 77 | 0.0 | 0.0 | 0.00 | 0.00 | 0.00 | 73 | 1015.2 |
| 20260508034845 | 69 | 77 | 0.0 | 0.0 | 0.00 | 0.00 | 0.00 | 73 | 1014.5 |
| 20260508033844 | 69 | 61 | 0.0 | 0.0 | 0.00 | 0.00 | 0.00 | 73 | 1014.6 |
| 20260508032844 | 69 | 61 | 0.0 | 0.0 | 0.00 | 0.00 | 0.00 | 73 | 1015.0 |
| 20260508031845 | 69 | 59 | 0.0 | 0.0 | 0.00 | 0.00 | 0.00 | 72 | 1015.4 |
| 20260508030845 | 70 | 59 | 0.0 | 0.0 | 0.00 | 0.00 | 0.00 | 72 | 1014.9 |
| 20260508025845 | 70 | 55 | 0.0 | 0.0 | 0.00 | 0.00 | 0.00 | 72 | 1015.0 |
| 20260508024844 | 70 | 45 | 0.0 | 0.0 | 0.00 | 0.00 | 0.00 | 72 | 1015.1 |
| 20260508023844 | 70 | 5 | 0.0 | 0.0 | 0.00 | 0.00 | 0.00 | 71 | 1015.3 |
| 20260508022844 | 70 | 5 | 0.0 | 0.0 | 0.00 | 0.00 | 0.00 | 70 | 1015.3 |
| 20260508021844 | 70 | 51 | 0.0 | 0.0 | 0.00 | 0.00 | 0.00 | 71 | 1015.0 |
| 20260508020844 | 71 | 305 | 0.0 | 0.0 | 0.00 | 0.00 | 0.00 | 70 | 1015.4 |
| 20260508015844 | 71 | 55 | 0.0 | 0.0 | 0.00 | 0.00 | 0.00 | 70 | 1015.3 |
| 20260508014844 | 71 | 305 | 0.0 | 0.0 | 0.00 | 0.00 | 0.00 | 70 | 1015.3 |
| 20260508013844 | 72 | 329 | 0.0 | 0.0 | 0.00 | 0.00 | 0.00 | 69 | 1015.5 |
| 20260508012844 | 72 | 311 | 0.0 | 0.0 | 0.00 | 0.00 | 0.00 | 69 | 1015.4 |
| 20260508011844 | 73 | 306 | 0.0 | 0.0 | 0.00 | 0.00 | 0.00 | 68 | 1015.0 |
| 20260508010844 | 74 | 292 | 0.0 | 0.0 | 0.00 | 0.00 | 0.00 | 68 | 1015.1 |
| 20260508005844 | 74 | 313 | 0.0 | 0.0 | 0.00 | 0.00 | 0.00 | 68 | 1015.1 |
| 20260508004844 | 74 | 301 | 0.0 | 3.0 | 0.00 | 0.00 | 0.00 | 67 | 1015.0 |
| 20260508003843 | 74 | 327 | 0.0 | 0.0 | 0.00 | 0.00 | 0.00 | 66 | 1014.8 |
| 20260508002844 | 75 | 360 | 0.0 | 1.0 | 0.00 | 0.00 | 0.00 | 66 | 1014.6 |
| 20260508001843 | 75 | 329 | 0.0 | 0.0 | 0.00 | 0.00 | 0.00 | 65 | 1015.2 |
| 20260508000843 | 76 | 329 | 0.0 | 3.0 | 0.00 | 0.00 | 0.00 | 65 | 1015.3 |
| 20260507235843 | 76 | 312 | 0.0 | 2.0 | 0.00 | 0.00 | 0.00 | 65 | 1015.0 |
| 20260507234843 | 77 | 313 | 0.0 | 2.0 | 0.00 | 0.00 | 0.00 | 65 | 1015.0 |
| 20260507233843 | 77 | 313 | 0.0 | 1.0 | 0.00 | 0.00 | 0.00 | 64 | 1015.1 |
| 20260507232843 | 77 | 313 | 0.0 | 3.0 | 0.00 | 0.00 | 0.00 | 64 | 1015.4 |
| 20260507231843 | 78 | 317 | 0.0 | 2.0 | 0.00 | 0.00 | 0.00 | 64 | 1015.4 |
| 20260507230843 | 78 | 332 | 0.0 | 5.0 | 0.00 | 0.00 | 0.00 | 63 | 1015.2 |
| 20260507225843 | 78 | 315 | 0.0 | 2.0 | 0.00 | 0.00 | 0.00 | 62 | 1015.0 |
| 20260507224843 | 78 | 36 | 0.0 | 1.0 | 0.00 | 0.00 | 0.00 | 62 | 1014.9 |
| 20260507223843 | 79 | 69 | 0.0 | 0.0 | 0.00 | 0.00 | 0.00 | 62 | 1014.7 |
| 20260507222842 | 79 | 330 | 0.0 | 0.0 | 0.00 | 0.00 | 0.00 | 61 | 1014.7 |
| 20260507221842 | 79 | 328 | 0.0 | 0.0 | 0.00 | 0.00 | 0.00 | 61 | 1014.6 |
| 20260507220843 | 79 | 75 | 0.0 | 0.0 | 0.00 | 0.00 | 0.00 | 62 | 1014.7 |
| 20260507215842 | 80 | 75 | 0.0 | 1.0 | 0.00 | 0.00 | 0.00 | 61 | 1015.1 |
| 20260507214842 | 80 | 29 | 0.0 | 0.0 | 0.00 | 0.00 | 0.00 | 61 | 1015.0 |
| 20260507213843 | 81 | 27 | 0.0 | 0.0 | 0.00 | 0.00 | 0.00 | 60 | 1015.1 |
| 20260507212843 | 81 | 61 | 0.0 | 2.0 | 0.00 | 0.00 | 0.00 | 59 | 1015.0 |
| 20260507211842 | 82 | 309 | 0.0 | 1.0 | 0.00 | 0.00 | 0.00 | 58 | 1014.9 |
| 20260507210842 | 83 | 328 | 0.0 | 2.0 | 0.00 | 0.00 | 0.00 | 59 | 1015.3 |
| 20260507205842 | 83 | 5 | 0.0 | 2.0 | 0.00 | 0.00 | 0.00 | 59 | 1015.5 |
| 20260507204842 | 82 | 42 | 0.0 | 2.0 | 0.00 | 0.00 | 0.00 | 61 | 1015.6 |
| 20260507203842 | 82 | 42 | 0.0 | 3.0 | 0.00 | 0.00 | 0.00 | 61 | 1015.6 |
| 20260507202842 | 82 | 311 | 1.0 | 3.0 | 0.00 | 0.00 | 0.00 | 60 | 1015.7 |
| 20260507201842 | 82 | 329 | 1.0 | 3.0 | 0.00 | 0.00 | 0.00 | 58 | 1015.7 |
| 20260507200842 | 82 | 341 | 0.0 | 6.0 | 0.00 | 0.00 | 0.00 | 60 | 1015.7 |
| 20260507195842 | 81 | 23 | 1.0 | 3.0 | 0.00 | 0.00 | 0.00 | 62 | 1015.7 |
| 20260507194841 | 80 | 59 | 0.0 | 4.0 | 0.00 | 0.00 | 0.00 | 62 | 1016.2 |
| 20260507193841 | 79 | 21 | 0.0 | 5.0 | 0.00 | 0.00 | 0.00 | 65 | 1016.3 |
| 20260507192841 | 78 | 31 | 0.0 | 4.0 | 0.00 | 0.00 | 0.00 | 65 | 1016.2 |
| 20260507191841 | 77 | 19 | 1.0 | 2.0 | 0.00 | 0.00 | 0.00 | 65 | 1016.2 |
| 20260507190841 | 77 | 38 | 0.0 | 2.0 | 0.00 | 0.00 | 0.00 | 67 | 1016.4 |
| 20260507185841 | 76 | 32 | 0.0 | 2.0 | 0.00 | 0.00 | 0.00 | 68 | 1016.8 |
| 20260507184841 | 75 | 38 | 0.0 | 3.0 | 0.00 | 0.00 | 0.00 | 69 | 1017.3 |
| 20260507183841 | 74 | 311 | 3.0 | 4.0 | 0.00 | 0.00 | 0.00 | 69 | 1017.1 |
| 20260507182841 | 74 | 63 | 0.0 | 2.0 | 0.00 | 0.00 | 0.00 | 70 | 1017.1 |
| 20260507181841 | 73 | 13 | 0.0 | 2.0 | 0.00 | 0.00 | 0.00 | 70 | 1017.3 |
| 20260507180841 | 72 | 34 | 0.0 | 4.0 | 0.00 | 0.00 | 0.00 | 72 | 1017.6 |
| 20260507175840 | 72 | 300 | 4.0 | 4.0 | 0.00 | 0.00 | 0.00 | 70 | 1017.5 |
| 20260507174840 | 71 | 298 | 1.0 | 4.0 | 0.00 | 0.00 | 0.00 | 72 | 1017.7 |
| 20260507173840 | 71 | 323 | 0.0 | 3.0 | 0.00 | 0.00 | 0.00 | 73 | 1017.6 |
| 20260507172841 | 70 | 343 | 0.0 | 3.0 | 0.00 | 0.00 | 0.00 | 74 | 1017.8 |
| 20260507171840 | 69 | 338 | 0.0 | 5.0 | 0.00 | 0.00 | 0.00 | 75 | 1018.2 |
| 20260507170840 | 68 | 340 | 1.0 | 4.0 | 0.00 | 0.00 | 0.00 | 76 | 1018.0 |
| 20260507165840 | 68 | 30 | 1.0 | 1.0 | 0.00 | 0.00 | 0.00 | 77 | 1018.0 |
| 20260507164840 | 67 | 330 | 0.0 | 2.0 | 0.00 | 0.00 | 0.00 | 77 | 1018.0 |
| 20260507163840 | 67 | 339 | 0.0 | 2.0 | 0.00 | 0.00 | 0.00 | 77 | 1017.8 |
| 20260507162840 | 66 | 41 | 0.0 | 1.0 | 0.00 | 0.00 | 0.00 | 78 | 1017.7 |
| 20260507161840 | 66 | 42 | 0.0 | 3.0 | 0.00 | 0.00 | 0.00 | 78 | 1017.5 |
| 20260507160840 | 65 | 51 | 0.0 | 2.0 | 0.00 | 0.00 | 0.00 | 79 | 1017.5 |
| 20260507155840 | 65 | 337 | 0.0 | 5.0 | 0.00 | 0.00 | 0.00 | 79 | 1017.7 |
| 20260507154840 | 64 | 23 | 0.0 | 2.0 | 0.00 | 0.00 | 0.00 | 80 | 1016.9 |
| 20260507153840 | 64 | 59 | 2.0 | 2.0 | 0.00 | 0.00 | 0.00 | 81 | 1017.0 |
| 20260507152840 | 63 | 41 | 1.0 | 1.0 | 0.00 | 0.00 | 0.00 | 81 | 1017.3 |
| 20260507151840 | 63 | 44 | 0.0 | 3.0 | 0.00 | 0.00 | 0.00 | 80 | 1017.6 |
| 20260507150839 | 63 | 5 | 1.0 | 9.0 | 0.00 | 0.00 | 0.00 | 81 | 1017.7 |
| 20260507145839 | 63 | 318 | 0.0 | 3.0 | 0.00 | 0.00 | 0.00 | 81 | 1017.8 |
| 20260507144840 | 63 | 12 | 0.0 | 4.0 | 0.00 | 0.00 | 0.00 | 82 | 1017.8 |
| 20260507143840 | 63 | 332 | 1.0 | 2.0 | 0.00 | 0.00 | 0.00 | 82 | 1018.2 |
| 20260507142839 | 62 | 322 | 2.0 | 5.0 | 0.00 | 0.00 | 0.00 | 82 | 1018.0 |
| 20260507141839 | 62 | 348 | 1.0 | 2.0 | 0.00 | 0.00 | 0.00 | 82 | 1018.0 |
| 20260507140839 | 62 | 50 | 0.0 | 3.0 | 0.00 | 0.00 | 0.00 | 82 | 1017.9 |
| 20260507135839 | 62 | 331 | 1.0 | 3.0 | 0.00 | 0.00 | 0.00 | 82 | 1017.9 |
| 20260507134839 | 62 | 337 | 0.0 | 5.0 | 0.00 | 0.00 | 0.00 | 82 | 1018.1 |
| 20260507133839 | 62 | 330 | 0.0 | 0.0 | 0.00 | 0.00 | 0.00 | 82 | 1018.0 |
| 20260507132839 | 62 | 355 | 0.0 | 0.0 | 0.00 | 0.00 | 0.00 | 83 | 1017.9 |
| 20260507131839 | 62 | 68 | 0.0 | 0.0 | 0.00 | 0.00 | 0.00 | 83 | 1017.8 |
| 20260507130839 | 62 | 327 | 0.0 | 2.0 | 0.00 | 0.00 | 0.00 | 83 | 1017.9 |
| 20260507125838 | 62 | 348 | 0.0 | 5.0 | 0.00 | 0.00 | 0.00 | 83 | 1018.2 |